Flag for Canada Weather past 2 weeks in Steinbach, Manitoba, Canada

Now
4 °F

Frigid.


Feels Like: -3 °F
Forecast: -2 / 14 °F
Wind: 3 mph from Southwest

Location: Winnipeg The Forks

Current Time: Feb 28, 2015 at 7:16:13 AM

Latest Report: Feb 28, 2015 at 6:00 AM


Visibility: N/A

Pressure: 30.26 "Hg

Humidity: 73%

Dew point: -3 °F

Location of SteinbachLocation

Historic Weather in Steinbach — Graph

°F

Steinbach temperature yesterday

Maximum temperature yesterday: 15 °F (at 3:00 PM)
Minimum temperature yesterday: -7 °F (at 7:00 AM)
Average temperature yesterday: 5 °F

Past Weeks' High & Low Weather Summary

 TemperatureHumidityPressure
High27 °F (Feb 23, 10:00 PM)91% (Feb 24, 12:00 AM)30.83 "Hg (Feb 24, 12:00 AM)
Low-21 °F (Feb 22, 8:00 AM)46% (Feb 22, 5:00 PM)29.67 "Hg (Feb 23, 11:00 PM)
Average-1 °F66%30.31 "Hg
* Reported Feb 13 6:00 AM — Feb 28 6:00 AM, Steinbach, Weather by CustomWeather, © 2015

Note: Actual official high and low records may vary slightly from our data, if they occured in-between our weather recording intervals... More about our weather records

Advertising

Steinbach weather history for previous 24 hours

 ConditionsComfort  
Time TempWeatherWind HumidityBarometerVisibility
6:00 AM
Sat, Feb 28
4 °FFrigid.3 mph73%30.26 "HgN/A
5:00 AM4 °FFrigid.5 mph73%30.26 "HgN/A
4:00 AM4 °FFrigid.5 mph72%30.27 "HgN/A
3:00 AM5 °FFrigid.5 mph72%30.28 "HgN/A
2:00 AM5 °FFrigid.6 mph69%30.30 "HgN/A
1:00 AM7 °FFrigid.6 mph68%30.31 "HgN/A
12:00 AM6 °FFrigid.3 mph69%30.32 "HgN/A
11:00 PM
Fri, Feb 27
7 °FFrigid.3 mph67%30.33 "HgN/A
10:00 PM9 °FFrigid.8 mph65%30.34 "HgN/A
9:00 PM10 °FCold.6 mph66%30.34 "HgN/A
8:00 PM11 °FCold.6 mph68%30.34 "HgN/A
7:00 PM12 °FCold.7 mph70%30.34 "HgN/A
6:00 PM14 °FCold.8 mph62%30.34 "HgN/A
5:00 PM15 °FCold.8 mph59%30.34 "HgN/A
4:00 PM15 °FCold.10 mph58%30.35 "HgN/A
3:00 PM15 °FCold.9 mph53%30.36 "HgN/A
2:00 PM14 °FCold.8 mph55%30.37 "HgN/A
1:00 PM11 °FCold.9 mph54%30.40 "HgN/A
12:00 PM8 °FFrigid.7 mph51%30.41 "HgN/A
11:00 AM4 °FFrigid.7 mph51%30.41 "HgN/A
10:00 AM1 °FFrigid.5 mph56%30.42 "HgN/A
9:00 AM-5 °FFrigid.7 mph64%30.42 "HgN/A
8:00 AM-7 °FFrigid.2 mph68%30.43 "HgN/A
7:00 AM-7 °FFrigid.1 mph67%30.43 "HgN/A
Weather by CustomWeather, © 2015

See weather overviewHow to use our weather pages